Weather History for Tupelo, MS

Change the Weather History Date:

Wednesday, April 17, 2013

  Actual Average Record
Temperature  
Mean Temperature 77 °F 62 °F  
Max Temperature 88 °F 75 °F 89 °F (1937)
Min Temperature 66 °F 51 °F 34 °F (1983)
Degree Days  
Heating Degree Days 0 4  
Month to date heating degree days 94 105  
Since 1 July heating degree days 2835 2891  
Cooling Degree Days 12 2  
Month to date cooling degree days 47 25  
Year to date cooling degree days 54 41  
Growing Degree Days 27 (Base 50)    
Moisture  
Dew Point 66 °F    
Average Humidity 72    
Maximum Humidity 93    
Minimum Humidity 50    
Precipitation  
Precipitation 0.00 in 0.15 in 2.18 in (1970)
Month to date precipitation 3.53 2.60  
Year to date precipitation 20.29 16.86  
Snow  
Snow 0.00 in 0.00 in - ()
Month to date snowfall 0.0 0.0  
Since 1 July snowfall T 2.1  
Snow Depth 0.00 in    
Sea Level Pressure  
Sea Level Pressure 30.04 in    
Wind  
Wind Speed 9 mph (South)    
Max Wind Speed 21 mph    
Max Gust Speed 28 mph    
Visibility 9 miles    
Events      
T = Trace of Precipitation, MM = Missing Value Source: NWS Daily Summary

Daily Weather History Graph

Daily Weather History Graph

Search for Another Location

Airport:

Trip Planner

Search our weather history database for the weather conditions in past years. The results will help you decide how hot, cold, wet, or windy it might be!

Date:

Astronomy

Apr. 17, 2013 Rise Set
Actual Time 6:21 AM CDT 7:28 PM CDT
Civil Twilight 5:55 AM CDT 7:54 PM CDT
Nautical Twilight 5:24 AM CDT 8:25 PM CDT
Astronomical Twilight 4:52 AM CDT 8:57 PM CDT
Moon 11:39 AM CDT (4/17) 1:00 AM CDT (4/17)
Length of Visible Light 13h 59m
Length of Day
13h 07m
Waxing Crescent, 42% of the Moon is Illuminated
Apr 17
Waxing Crescent
Apr 18
First Quarter
Apr 25
Full
May 2
Last Quarter
May 9
New

Hourly Weather History & Observations

Time (CDT) Temp. Heat Index Dew Point Humidity Pressure Visibility Wind Dir Wind Speed Gust Speed Precip Events Conditions
12:53 AM 72.0 °F - 66.0 °F 81% 30.07 in 10.0 mi South 3.5 mph - N/A   Clear
1:53 AM 70.0 °F - 66.0 °F 87% 30.07 in 10.0 mi Calm Calm - N/A   Clear
2:53 AM 70.0 °F - 66.0 °F 87% 30.06 in 10.0 mi South 3.5 mph - N/A   Clear
3:53 AM 68.0 °F - 64.9 °F 90% 30.06 in 10.0 mi Calm Calm - N/A   Clear
4:53 AM 66.0 °F - 64.0 °F 93% 30.07 in 8.0 mi Calm Calm - N/A   Clear
5:53 AM 66.9 °F - 64.9 °F 93% 30.08 in 7.0 mi SE 5.8 mph - N/A   Clear
6:53 AM 68.0 °F - 66.0 °F 93% 30.11 in 6.0 mi South 4.6 mph - N/A   Clear
7:17 AM 69.8 °F - 66.2 °F 88% 30.13 in 8.0 mi SSE 5.8 mph - N/A   Scattered Clouds
7:26 AM 69.8 °F - 66.2 °F 88% 30.13 in 8.0 mi South 5.8 mph - N/A   Mostly Cloudy
7:53 AM 70.0 °F - 66.9 °F 90% 30.13 in 9.0 mi South 6.9 mph - N/A   Overcast
8:20 AM 71.6 °F - 68.0 °F 88% 30.13 in 10.0 mi SSE 6.9 mph - N/A   Scattered Clouds
8:53 AM 73.0 °F - 68.0 °F 84% 30.13 in 10.0 mi South 5.8 mph - N/A   Scattered Clouds
9:53 AM 77.0 °F - 69.1 °F 76% 30.12 in 10.0 mi SSW 8.1 mph - N/A   Clear
10:53 AM 80.1 °F 82.9 °F 69.1 °F 69% 30.09 in 10.0 mi SSW 11.5 mph 19.6 mph N/A   Clear
11:53 AM 82.0 °F 85.5 °F 69.1 °F 65% 30.07 in 10.0 mi SSW 11.5 mph - N/A   Clear
12:53 PM 82.0 °F 84.5 °F 66.9 °F 60% 30.06 in 10.0 mi SSW 13.8 mph 19.6 mph N/A   Overcast
1:53 PM 87.1 °F 89.2 °F 66.0 °F 49% 30.03 in 10.0 mi SW 16.1 mph 19.6 mph N/A   Scattered Clouds
2:53 PM 84.9 °F 86.6 °F 64.9 °F 51% 30.01 in 10.0 mi South 11.5 mph - N/A   Mostly Cloudy
3:53 PM 84.9 °F 87.6 °F 66.9 °F 55% 29.99 in 10.0 mi South 15.0 mph 23.0 mph N/A   Partly Cloudy
4:53 PM 82.9 °F 85.0 °F 66.0 °F 56% 29.98 in 10.0 mi SSW 19.6 mph 27.6 mph N/A   Clear
5:53 PM 82.0 °F 83.8 °F 64.9 °F 56% 29.96 in 10.0 mi South 15.0 mph 24.2 mph N/A   Clear
6:53 PM 80.1 °F 82.1 °F 66.0 °F 62% 29.96 in 10.0 mi South 12.7 mph 19.6 mph N/A   Clear
7:53 PM 78.1 °F - 66.0 °F 66% 29.94 in 10.0 mi South 9.2 mph - N/A   Clear
8:53 PM 77.0 °F - 66.0 °F 69% 29.95 in 10.0 mi South 8.1 mph - N/A   Clear
9:53 PM 77.0 °F - 66.9 °F 71% 29.95 in 10.0 mi South 10.4 mph - N/A   Clear
10:53 PM 75.9 °F - 66.9 °F 74% 29.94 in 10.0 mi South 10.4 mph - N/A   Clear
11:53 PM 75.0 °F - 66.9 °F 76% 29.93 in 10.0 mi South 12.7 mph - N/A   Clear